User: anonymous   Login
Location: Unspecified
(0.0000°N, 0.0000°E)
Time: 21:54:58
(UTC+00:00)
Language:

AO-109 - Orbit

View from above orbital plane
View from above orbital plane
View from above satellite
View from above satellite

Ground track
Ground track

The orbit data is extracted from the following two-line orbital elements,

1 47311U 21002C   22268.39175556  .00009252  00000-0  35404-3 0  9999
2 47311  60.6867 345.6495 0033475  42.5852 317.7824 15.26734053 93713
Epoch (UTC): 25 September 2022 09:24:07
Eccentricity: 0.0033475
inclination: 60.6867°
perigee height: 462 km
apogee height: 508 km
right ascension of ascending node: 345.6495°
argument of perigee: 42.5852°
revolutions per day: 15.26734053
mean anomaly at epoch: 317.7824°
orbit number at epoch: 9371

The dashed part of the orbit path shows where the satellite is in the earth's shadow,  

DLR